St. Cloud, MN

1:01 AM CST on December 16, 2019 (GMT -0600)
Saint Cloud Regional

Weather History for KSTC - April, 2019

Change the Weather History Date:

Monday, April 29, 2019

  Actual Average Record
Temperature  
Mean Temperature 45 °F 51 °F  
Max Temperature 52 °F 63 °F 86 °F (1952)
Min Temperature 38 °F 39 °F 18 °F (1958)
Degree Days  
Heating Degree Days 20 14  
Month to date heating degree days 647 604  
Since 1 July heating degree days 8771 8154  
Cooling Degree Days 0 0  
Month to date cooling degree days 0 0  
Year to date cooling degree days 0 0  
Moisture  
Dew Point 36 °F    
Average Humidity 76    
Maximum Humidity 92    
Minimum Humidity 59    
Precipitation  
Precipitation 0.03 in 0.11 in 1.24 in (2006)
Month to date precipitation 3.14 2.47  
Year to date precipitation 7.20 5.26  
Snow  
Snow 0.00 in 0.10 in 3.00 in (1950)
Month to date snowfall 8.3 3.0  
Since 1 July snowfall 68.5 45.7  
Snow Depth 0.00 in    
Sea Level Pressure  
Sea Level Pressure 30.05 in    
Wind  
Wind Speed 6 mph (NE)    
Max Wind Speed 14 mph    
Max Gust Speed 20 mph    
Visibility 10 miles    
Events Rain    
T = Trace of Precipitation, MM = Missing Value Source: NWS Daily Summary

Daily Weather History Graph

Daily Weather History Graph

Search for Another Location

Airport or City:

Astronomy

Apr. 29, 2019 Rise Set
Actual Time 6:07 AM CDT 8:20 PM CDT
Civil Twilight 5:35 AM CDT 8:53 PM CDT
Nautical Twilight 4:54 AM CDT 9:33 PM CDT
Astronomical Twilight 4:10 AM CDT 10:18 PM CDT
Moon 4:15 AM CDT (4/29) 2:54 PM CDT (4/29)
Length of Visible Light 15h 17m
Length of Day
14h 12m
Waning Crescent, 25% of the Moon is Illuminated
Apr 29
Waning Crescent
May 4
New
May 11
First Quarter
May 18
Full
May 26
Last Quarter

Hourly Weather History & Observations

Time (CDT) Temp. Windchill Dew Point Humidity Pressure Visibility Wind Dir Wind Speed Gust Speed Precip Events Conditions
12:06 AM 37.9 °F 32.1 °F 34.0 °F 86% 30.05 in 10.0 mi East 8.1 mph - 0.00 in Rain Light Rain
12:53 AM 37.9 °F 32.1 °F 35.1 °F 89% 30.08 in 10.0 mi ENE 8.1 mph - 0.01 in   Overcast
1:27 AM 37.9 °F 32.1 °F 35.1 °F 89% 30.01 in 9.0 mi East 8.1 mph - 0.01 in Rain Light Rain
1:53 AM 39.0 °F 32.8 °F 35.1 °F 86% 30.04 in 10.0 mi East 9.2 mph - 0.02 in Rain Light Rain
2:53 AM 37.9 °F 31.5 °F 35.1 °F 89% 30.01 in 10.0 mi East 9.2 mph - 0.00 in   Overcast
3:21 AM 37.9 °F 30.0 °F 35.1 °F 89% 29.96 in 8.0 mi East 12.7 mph 19.6 mph 0.01 in Rain Light Rain
3:53 AM 37.9 °F 33.5 °F 35.1 °F 89% 30.00 in 10.0 mi East 5.8 mph - 0.01 in   Overcast
4:53 AM 39.0 °F 34.0 °F 35.1 °F 86% 29.98 in 10.0 mi East 6.9 mph - 0.00 in   Overcast
5:53 AM 39.0 °F 34.0 °F 35.1 °F 86% 29.96 in 10.0 mi East 6.9 mph - 0.00 in   Overcast
6:53 AM 39.0 °F 34.0 °F 35.1 °F 86% 29.98 in 10.0 mi East 6.9 mph - 0.00 in Rain Light Rain
7:17 AM 39.0 °F 34.0 °F 35.1 °F 86% 29.94 in 10.0 mi ENE 6.9 mph - 0.00 in   Overcast
7:53 AM 39.9 °F 35.1 °F 35.1 °F 83% 29.99 in 10.0 mi East 6.9 mph - 0.00 in   Overcast
8:53 AM 41.0 °F 36.4 °F 36.0 °F 82% 29.98 in 10.0 mi East 6.9 mph - N/A   Overcast
9:53 AM 42.1 °F 39.2 °F 36.0 °F 79% 29.98 in 10.0 mi East 4.6 mph - N/A   Overcast
10:25 AM 44.1 °F 41.5 °F 37.0 °F 76% 29.93 in 10.0 mi East 4.6 mph - N/A   Overcast
10:51 AM 44.6 °F - 37.4 °F 76% 29.95 in 10.0 mi Calm Calm - N/A   Overcast
10:53 AM 44.1 °F - 37.0 °F 76% 29.99 in 10.0 mi Calm Calm - N/A   Overcast
11:20 AM 45.0 °F - 37.9 °F 76% 29.95 in 10.0 mi Calm Calm - N/A   Overcast
11:53 AM 48.0 °F - 37.9 °F 68% 29.99 in 10.0 mi Calm Calm - N/A   Mostly Cloudy
12:53 PM 48.9 °F - 37.0 °F 64% 30.00 in 10.0 mi NNW 4.6 mph - N/A   Overcast
1:53 PM 50.0 °F - 37.0 °F 61% 30.01 in 10.0 mi North 5.8 mph - N/A   Overcast
2:53 PM 48.9 °F - 37.0 °F 64% 30.04 in 10.0 mi NNW 5.8 mph - N/A   Overcast
3:53 PM 50.0 °F - 37.0 °F 61% 30.06 in 10.0 mi NNW 9.2 mph - N/A   Overcast
4:53 PM 51.1 °F - 37.9 °F 61% 30.06 in 10.0 mi North 8.1 mph - N/A   Mostly Cloudy
5:53 PM 50.0 °F - 37.0 °F 61% 30.09 in 10.0 mi North 9.2 mph - N/A   Overcast
6:53 PM 48.9 °F - 36.0 °F 61% 30.12 in 10.0 mi NNW 8.1 mph - N/A   Overcast
7:53 PM 48.0 °F - 37.0 °F 66% 30.14 in 10.0 mi North 6.9 mph - N/A   Overcast
8:53 PM 46.0 °F 43.9 °F 37.9 °F 73% 30.17 in 10.0 mi North 4.6 mph - N/A   Overcast
9:02 PM 46.0 °F 41.9 °F 37.0 °F 71% 30.13 in 10.0 mi North 8.1 mph - N/A   Overcast
9:53 PM 44.1 °F 39.5 °F 36.0 °F 73% 30.21 in 10.0 mi NNE 8.1 mph - N/A   Unknown
10:02 PM 44.6 °F 40.2 °F 35.6 °F 71% 30.16 in 10.0 mi NNE 8.1 mph - N/A   Overcast
10:05 PM 44.1 °F 40.8 °F 36.0 °F 73% 30.16 in 10.0 mi NNE 5.8 mph - N/A   Overcast
10:20 PM 43.0 °F 38.2 °F 37.0 °F 80% 30.17 in 10.0 mi NNE 8.1 mph - N/A   Overcast
10:53 PM 42.1 °F 37.7 °F 37.0 °F 82% 30.22 in 10.0 mi NNE 6.9 mph - N/A   Overcast
11:24 PM 42.1 °F 38.4 °F 36.0 °F 79% 30.19 in 10.0 mi NNE 5.8 mph - N/A   Overcast
11:53 PM 42.1 °F 39.2 °F 35.1 °F 76% 30.24 in 10.0 mi NNE 4.6 mph - N/A   Overcast